Powrót do katalogu

THOR AGENA D R/B

AktywnyPO
NORAD 815·ROCKET BODY·🇺🇸 United States

Wystrzelony Jun 18, 1964 z Vandenberg Space Force Base

Loading…

Następne Przeloty (najbliższe 24 godziny)

TLE

ŚwieżeSource: Space-Track

Epoka: Sep 14, 2026, 06:44 UTC

1 00815U 64031C   26257.28062664  .00000104  00000-0  63127-4 0  9992
2 00815  99.8316 218.7373 0012291  49.4029 310.8216 14.28533559233729

Śledź THOR AGENA D R/B w czasie rzeczywistym z AllMySat

Download on the App Store